This is the latest recevied weather packets stored in our database for station/object KC1OEK-13. If no packets are shown the sender has not sent any weather packets the latest 10 day(s).
| Time | Temp. | Humidity | Pressure | Rain* | Wind** | Luminosity | Snow |
|---|---|---|---|---|---|---|---|
| 1787591518 | 25° C | 59% | 1015.8 hPa | 0 mm | - | 693 W/m² | - |
| 1787591214 | 25° C | 59% | 1015.7 hPa | 0 mm | - | 703 W/m² | - |
| 1787590904 | 24.44° C | 60% | 1015.8 hPa | 0 mm | - | 720 W/m² | - |
| 1787590599 | 25° C | 60% | 1015.8 hPa | 0 mm | - | 716 W/m² | - |
| 1787590298 | 25° C | 58% | 1015.9 hPa | 0 mm | - | 718 W/m² | - |
| 1787589994 | 24.44° C | 59% | 1015.9 hPa | 0 mm | - | 751 W/m² | - |
| 1787589691 | 24.44° C | 59% | 1016 hPa | 0 mm | - | 764 W/m² | - |
| 1787589390 | 24.44° C | 59% | 1016.2 hPa | 0 mm | - | 787 W/m² | - |
| 1787589086 | 24.44° C | 60% | 1016 hPa | 0 mm | - | 729 W/m² | - |
| 1787588781 | 23.33° C | 63% | 1016 hPa | 0 mm | - | 764 W/m² | - |
| 1787588478 | 23.33° C | 63% | 1016.1 hPa | 0 mm | - | 288 W/m² | - |
| 1787588177 | 23.33° C | 62% | 1016.1 hPa | 0 mm | - | 272 W/m² | - |
| 1787587873 | 23.89° C | 62% | 1016.2 hPa | 0 mm | - | 314 W/m² | - |
| 1787587573 | 23.89° C | 62% | 1016 hPa | 0 mm | - | 354 W/m² | - |
| 1787587273 | 24.44° C | 60% | 1016 hPa | 0 mm | - | 453 W/m² | - |
| 1787586967 | 25° C | 61% | 1016.1 hPa | 0 mm | - | 788 W/m² | - |
| 1787586662 | 23.89° C | 66% | 1016.4 hPa | 0 mm | - | 746 W/m² | - |
| 1787586357 | 23.89° C | 64% | 1016.2 hPa | 0 mm | - | 707 W/m² | - |
| 1787586054 | 23.33° C | 62% | 1016.3 hPa | 0 mm | - | 273 W/m² | - |
| 1787585749 | 23.89° C | 61% | 1016.1 hPa | 0 mm | - | 163 W/m² | - |
| 1787585443 | 23.89° C | 62% | 1016.2 hPa | 0 mm | - | 656 W/m² | - |
| 1787585138 | 23.89° C | 62% | 1016.4 hPa | 0 mm | - | 645 W/m² | - |
| 1787584833 | 23.89° C | 63% | 1016.4 hPa | 0 mm | - | 641 W/m² | - |
| 1787584532 | 23.89° C | 63% | 1016.2 hPa | 0 mm | - | 623 W/m² | - |
| 1787584226 | 23.89° C | 68% | 1016.1 hPa | 0 mm | - | 616 W/m² | - |
* Rain latest hour (hover to see other rain measurements)
** Current wind speed in m/s (hover to see current wind gust speed)